Time,TemperatureF,DewpointF,PressureIn,WindDirection,WindDirectionDegrees,WindSpeedMPH,WindSpeedGustMPH,Humidity,HourlyPrecipIn,Conditions,Clouds,dailyrainin,SoftwareType,DateUTC
2013-02-09 00:02:00,17.1,15.9,29.68,NNE,22,0.0,-999.0,95,-99.99,,,0.00,Acu-Link.com,2013-02-09 05:02:00,
2013-02-09 00:17:00,17.1,15.9,29.69,SE,135,0.0,-999.0,95,-99.99,,,0.00,Acu-Link.com,2013-02-09 05:17:00,
2013-02-09 00:32:00,17.1,15.9,29.69,SE,135,0.0,-999.0,95,-99.99,,,0.00,Acu-Link.com,2013-02-09 05:32:00,
2013-02-09 00:47:00,17.2,16.0,29.69,SE,135,0.0,-999.0,95,-99.99,,,0.00,Acu-Link.com,2013-02-09 05:47:00,
2013-02-09 01:02:00,17.4,16.2,29.69,SSW,202,0.0,-999.0,95,-99.99,,,0.00,Acu-Link.com,2013-02-09 06:02:00,
2013-02-09 01:17:00,17.6,16.4,29.70,South,180,0.0,-999.0,95,-99.99,,,0.00,Acu-Link.com,2013-02-09 06:17:00,
2013-02-09 01:32:00,17.6,16.4,29.68,South,180,0.0,-999.0,95,-99.99,,,0.00,Acu-Link.com,2013-02-09 06:32:00,
2013-02-09 01:48:00,17.4,16.2,29.68,SSE,157,0.0,-999.0,95,-99.99,,,0.00,Acu-Link.com,2013-02-09 06:48:00,
2013-02-09 02:03:00,17.2,15.8,29.67,SSE,157,0.0,-999.0,94,-99.99,,,0.00,Acu-Link.com,2013-02-09 07:03:00,
2013-02-09 02:18:00,16.9,15.5,29.68,South,180,0.0,-999.0,94,-99.99,,,0.00,Acu-Link.com,2013-02-09 07:18:00,
2013-02-09 02:33:00,16.7,15.3,29.68,WSW,247,0.0,-999.0,94,-99.99,,,0.00,Acu-Link.com,2013-02-09 07:33:00,
2013-02-09 02:48:00,16.5,15.1,29.68,WNW,292,0.0,-999.0,94,-99.99,,,0.00,Acu-Link.com,2013-02-09 07:48:00,
2013-02-09 03:03:00,16.3,14.6,29.69,NNW,337,0.0,-999.0,93,-99.99,,,0.00,Acu-Link.com,2013-02-09 08:03:00,
2013-02-09 03:18:00,16.2,14.5,29.68,NNW,337,0.0,-999.0,93,-99.99,,,0.00,Acu-Link.com,2013-02-09 08:18:00,
2013-02-09 03:33:00,16.2,14.8,29.68,NNW,337,0.0,-999.0,94,-99.99,,,0.00,Acu-Link.com,2013-02-09 08:33:00,
2013-02-09 03:48:00,16.0,14.6,29.68,WSW,247,0.0,-999.0,94,-99.99,,,0.00,Acu-Link.com,2013-02-09 08:48:00,
2013-02-09 04:04:00,15.8,14.4,29.68,SW,225,0.0,-999.0,94,-99.99,,,0.00,Acu-Link.com,2013-02-09 09:04:00,
2013-02-09 04:19:00,15.6,14.2,29.68,SW,225,0.0,-999.0,94,-99.99,,,0.00,Acu-Link.com,2013-02-09 09:19:00,
2013-02-09 04:34:00,15.6,13.9,29.68,East,90,0.0,-999.0,93,-99.99,,,0.00,Acu-Link.com,2013-02-09 09:34:00,
2013-02-09 04:49:00,15.4,13.5,29.68,ESE,112,0.0,-999.0,92,-99.99,,,0.00,Acu-Link.com,2013-02-09 09:49:00,
2013-02-09 05:04:00,15.3,13.4,29.69,SSW,202,0.0,-999.0,92,-99.99,,,0.00,Acu-Link.com,2013-02-09 10:04:00,
2013-02-09 05:19:00,15.1,13.4,29.68,SW,225,0.0,-999.0,93,-99.99,,,0.00,Acu-Link.com,2013-02-09 10:19:00,
2013-02-09 05:34:00,15.1,13.4,29.68,SSE,157,0.0,-999.0,93,-99.99,,,0.00,Acu-Link.com,2013-02-09 10:34:00,
2013-02-09 05:49:00,14.9,12.8,29.69,East,90,0.0,-999.0,91,-99.99,,,0.00,Acu-Link.com,2013-02-09 10:49:00,
2013-02-09 06:04:00,14.9,13.0,29.69,ESE,112,0.0,-999.0,92,-99.99,,,0.00,Acu-Link.com,2013-02-09 11:04:00,
2013-02-09 06:19:00,14.7,12.6,29.69,SSE,157,0.0,-999.0,91,-99.99,,,0.00,Acu-Link.com,2013-02-09 11:19:00,
2013-02-09 06:35:00,14.5,12.4,29.70,WNW,292,0.0,-999.0,91,-99.99,,,0.00,Acu-Link.com,2013-02-09 11:35:00,
2013-02-09 06:50:00,14.5,11.9,29.70,NNW,337,0.0,-999.0,89,-99.99,,,0.00,Acu-Link.com,2013-02-09 11:50:00,
2013-02-09 07:05:00,14.5,11.6,29.71,South,180,0.0,-999.0,88,-99.99,,,0.00,Acu-Link.com,2013-02-09 12:05:00,
2013-02-09 07:20:00,14.0,10.1,29.72,NNE,22,0.0,-999.0,84,-99.99,,,0.00,Acu-Link.com,2013-02-09 12:20:00,
2013-02-09 07:35:00,13.6,10.5,29.75,South,180,0.0,-999.0,87,-99.99,,,0.00,Acu-Link.com,2013-02-09 12:35:00,
2013-02-09 07:50:00,13.3,10.2,29.76,SSW,202,0.0,-999.0,87,-99.99,,,0.00,Acu-Link.com,2013-02-09 12:50:00,
2013-02-09 08:05:00,12.9,8.7,29.77,SW,225,0.0,-999.0,83,-99.99,,,0.00,Acu-Link.com,2013-02-09 13:05:00,
2013-02-09 08:20:00,13.1,8.9,29.78,SSE,157,0.0,-999.0,83,-99.99,,,0.00,Acu-Link.com,2013-02-09 13:20:00,
2013-02-09 08:35:00,12.9,8.2,29.79,East,90,0.0,-999.0,81,-99.99,,,0.00,Acu-Link.com,2013-02-09 13:35:00,
2013-02-09 08:51:00,13.1,8.4,29.79,ESE,112,0.0,-999.0,81,-99.99,,,0.00,Acu-Link.com,2013-02-09 13:51:00,
2013-02-09 09:06:00,13.5,8.5,29.80,South,180,0.0,-999.0,80,-99.99,,,0.00,Acu-Link.com,2013-02-09 14:06:00,
2013-02-09 09:21:00,13.8,8.8,29.80,NNW,337,0.0,-999.0,80,-99.99,,,0.00,Acu-Link.com,2013-02-09 14:21:00,
2013-02-09 09:36:00,14.5,9.5,29.80,SW,225,0.0,-999.0,80,-99.99,,,0.00,Acu-Link.com,2013-02-09 14:36:00,
2013-02-09 09:51:00,15.1,8.6,29.82,SW,225,0.0,-999.0,75,-99.99,,,0.00,Acu-Link.com,2013-02-09 14:51:00,
2013-02-09 10:06:00,14.9,8.4,29.82,North,0,0.0,-999.0,75,-99.99,,,0.00,Acu-Link.com,2013-02-09 15:06:00,
2013-02-09 10:21:00,16.9,9.8,29.82,South,180,0.0,-999.0,73,-99.99,,,0.00,Acu-Link.com,2013-02-09 15:21:00,
2013-02-09 10:36:00,17.4,10.6,29.82,South,180,0.0,-999.0,74,-99.99,,,0.00,Acu-Link.com,2013-02-09 15:36:00,
2013-02-09 10:51:00,17.8,10.0,29.82,South,180,0.0,-999.0,71,-99.99,,,0.00,Acu-Link.com,2013-02-09 15:51:00,
2013-02-09 11:07:00,18.3,10.2,29.82,ESE,112,0.0,-999.0,70,-99.99,,,0.00,Acu-Link.com,2013-02-09 16:07:00,
2013-02-09 11:22:00,19.0,10.5,29.82,SSW,202,0.0,-999.0,69,-99.99,,,0.00,Acu-Link.com,2013-02-09 16:22:00,
2013-02-09 11:37:00,19.0,10.2,29.83,ESE,112,0.0,-999.0,68,-99.99,,,0.00,Acu-Link.com,2013-02-09 16:37:00,
2013-02-09 11:52:00,18.1,10.0,29.83,SSE,157,0.0,-999.0,70,-99.99,,,0.00,Acu-Link.com,2013-02-09 16:52:00,
2013-02-09 12:07:00,16.9,8.5,29.83,NNW,337,0.0,-999.0,69,-99.99,,,0.00,Acu-Link.com,2013-02-09 17:07:00,
2013-02-09 12:22:00,16.2,7.2,29.84,North,0,0.0,-999.0,67,-99.99,,,0.00,Acu-Link.com,2013-02-09 17:22:00,
2013-02-09 12:37:00,17.1,8.1,29.84,SSW,202,0.0,-999.0,67,-99.99,,,0.00,Acu-Link.com,2013-02-09 17:37:00,
2013-02-09 12:52:00,17.1,7.4,29.85,South,180,0.0,-999.0,65,-99.99,,,0.00,Acu-Link.com,2013-02-09 17:52:00,
2013-02-09 13:07:00,19.2,9.1,29.85,South,180,0.0,-999.0,64,-99.99,,,0.00,Acu-Link.com,2013-02-09 18:07:00,
2013-02-09 13:23:00,20.5,9.2,29.86,South,180,0.0,-999.0,61,-99.99,,,0.00,Acu-Link.com,2013-02-09 18:23:00,
2013-02-09 13:38:00,20.3,9.4,29.87,South,180,0.0,-999.0,62,-99.99,,,0.00,Acu-Link.com,2013-02-09 18:38:00,
2013-02-09 13:53:00,18.7,8.6,29.88,NNW,337,0.0,-999.0,64,-99.99,,,0.00,Acu-Link.com,2013-02-09 18:53:00,
2013-02-09 14:08:00,17.8,8.4,29.88,NNW,337,0.0,-999.0,66,-99.99,,,0.00,Acu-Link.com,2013-02-09 19:08:00,
2013-02-09 14:23:00,16.7,7.7,29.89,WNW,292,0.0,-999.0,67,-99.99,,,0.00,Acu-Link.com,2013-02-09 19:23:00,
2013-02-09 14:38:00,15.8,6.2,29.91,WNW,292,0.0,-999.0,65,-99.99,,,0.00,Acu-Link.com,2013-02-09 19:38:00,
2013-02-09 14:53:00,14.7,5.1,29.92,NNW,337,0.0,-999.0,65,-99.99,,,0.00,Acu-Link.com,2013-02-09 19:53:00,
2013-02-09 15:08:00,14.7,5.4,29.93,SW,225,0.0,-999.0,66,-99.99,,,0.00,Acu-Link.com,2013-02-09 20:08:00,
2013-02-09 15:23:00,14.9,5.0,29.93,ESE,112,0.0,-999.0,64,-99.99,,,0.00,Acu-Link.com,2013-02-09 20:23:00,
2013-02-09 15:39:00,14.7,5.4,29.95,SW,225,0.0,-999.0,66,-99.99,,,0.00,Acu-Link.com,2013-02-09 20:39:00,
2013-02-09 15:54:00,14.0,4.4,29.95,SW,225,0.0,-999.0,65,-99.99,,,0.00,Acu-Link.com,2013-02-09 20:54:00,
2013-02-09 16:09:00,13.3,4.4,29.96,SW,225,0.0,-999.0,67,-99.99,,,0.00,Acu-Link.com,2013-02-09 21:09:00,
2013-02-09 16:24:00,12.9,3.7,29.95,NNW,337,0.0,-999.0,66,-99.99,,,0.00,Acu-Link.com,2013-02-09 21:24:00,
2013-02-09 16:39:00,12.4,4.2,29.97,North,0,0.0,-999.0,69,-99.99,,,0.00,Acu-Link.com,2013-02-09 21:39:00,
2013-02-09 16:54:00,12.0,3.5,29.97,SSW,202,0.0,-999.0,68,-99.99,,,0.00,Acu-Link.com,2013-02-09 21:54:00,
2013-02-09 17:09:00,11.8,3.3,29.99,NNW,337,0.0,-999.0,68,-99.99,,,0.00,Acu-Link.com,2013-02-09 22:09:00,
2013-02-09 17:24:00,11.3,2.8,29.99,NNW,337,0.0,-999.0,68,-99.99,,,0.00,Acu-Link.com,2013-02-09 22:24:00,
2013-02-09 17:39:00,11.1,2.3,30.01,NNW,337,0.0,-999.0,67,-99.99,,,0.00,Acu-Link.com,2013-02-09 22:39:00,
2013-02-09 17:54:00,10.9,1.5,30.02,SSW,202,0.0,-999.0,65,-99.99,,,0.00,Acu-Link.com,2013-02-09 22:54:00,
2013-02-09 18:10:00,10.6,0.5,30.04,SSW,202,0.0,-999.0,63,-99.99,,,0.00,Acu-Link.com,2013-02-09 23:10:00,
2013-02-09 18:25:00,9.9,2.4,30.05,South,180,0.0,-999.0,71,-99.99,,,0.00,Acu-Link.com,2013-02-09 23:25:00,
2013-02-09 18:40:00,9.9,0.5,30.06,SSE,157,0.0,-999.0,65,-99.99,,,0.00,Acu-Link.com,2013-02-09 23:40:00,
2013-02-09 18:55:00,9.1,1.3,30.07,WNW,292,0.0,-999.0,70,-99.99,,,0.00,Acu-Link.com,2013-02-09 23:55:00,
2013-02-09 19:10:00,8.2,1.1,30.08,South,180,0.0,-999.0,72,-99.99,,,0.00,Acu-Link.com,2013-02-10 00:10:00,
2013-02-09 19:25:00,8.1,1.0,30.09,South,180,0.0,-999.0,72,-99.99,,,0.00,Acu-Link.com,2013-02-10 00:25:00,
2013-02-09 19:40:00,7.9,1.4,30.09,South,180,0.0,-999.0,74,-99.99,,,0.00,Acu-Link.com,2013-02-10 00:40:00,
2013-02-09 19:55:00,7.7,0.6,30.10,SSE,157,0.0,-999.0,72,-99.99,,,0.00,Acu-Link.com,2013-02-10 00:55:00,
2013-02-09 20:10:00,8.1,1.3,30.11,SSW,202,0.0,-999.0,73,-99.99,,,0.00,Acu-Link.com,2013-02-10 01:10:00,
2013-02-09 20:26:00,8.1,1.6,30.11,SSW,202,0.0,-999.0,74,-99.99,,,0.00,Acu-Link.com,2013-02-10 01:26:00,
2013-02-09 20:41:00,8.1,1.8,30.11,SSW,202,0.0,-999.0,75,-99.99,,,0.00,Acu-Link.com,2013-02-10 01:41:00,
2013-02-09 20:56:00,8.2,1.9,30.11,SSE,157,0.0,-999.0,75,-99.99,,,0.00,Acu-Link.com,2013-02-10 01:56:00,
2013-02-09 21:11:00,8.8,1.6,30.11,SSE,157,0.0,-999.0,72,-99.99,,,0.00,Acu-Link.com,2013-02-10 02:11:00,
2013-02-09 21:26:00,8.8,1.0,30.12,SSE,157,0.0,-999.0,70,-99.99,,,0.00,Acu-Link.com,2013-02-10 02:26:00,
2013-02-09 21:41:00,8.6,1.2,30.12,SW,225,0.0,-999.0,71,-99.99,,,0.00,Acu-Link.com,2013-02-10 02:41:00,
2013-02-09 21:56:00,8.2,1.9,30.12,SW,225,0.0,-999.0,75,-99.99,,,0.00,Acu-Link.com,2013-02-10 02:56:00,
2013-02-09 22:11:00,7.9,2.2,30.12,SW,225,0.0,-999.0,77,-99.99,,,0.00,Acu-Link.com,2013-02-10 03:11:00,
2013-02-09 22:27:00,7.7,2.6,30.12,NW,315,0.0,-999.0,79,-99.99,,,0.00,Acu-Link.com,2013-02-10 03:27:00,
2013-02-09 22:42:00,7.9,2.8,30.12,WNW,292,0.0,-999.0,79,-99.99,,,0.00,Acu-Link.com,2013-02-10 03:42:00,
2013-02-09 22:57:00,8.2,2.5,30.13,WSW,247,0.0,-999.0,77,-99.99,,,0.00,Acu-Link.com,2013-02-10 03:57:00,
2013-02-09 23:12:00,9.0,2.4,30.13,NNE,22,0.0,-999.0,74,-99.99,,,0.00,Acu-Link.com,2013-02-10 04:12:00,
2013-02-09 23:28:00,9.1,1.9,30.13,East,90,0.0,-999.0,72,-99.99,,,0.00,Acu-Link.com,2013-02-10 04:28:00,
2013-02-09 23:43:00,9.1,1.9,30.14,SW,225,0.0,-999.0,72,-99.99,,,0.00,Acu-Link.com,2013-02-10 04:43:00,
2013-02-09 23:58:00,9.7,2.2,30.14,NNW,337,0.0,-999.0,71,-99.99,,,0.00,Acu-Link.com,2013-02-10 04:58:00,